Location: Winthrop
(48.4780°N, 120.1850°W)
Time: 02:10:15
(UTC-07:00)

Transit 2A - Pass Details

Date: 18 June 2024
Orbit: 591 x 960 km, 66.7° (Epoch: 23 July)

Event Time Altitude Azimuth Distance (km) Brightness Sun altitude
Rises 22:33:13 0° 321° (NW) 3,388 11.6 -10.7°
Reaches altitude 10° 22:36:37 10° 342° (NNW) 2,523 10.1 -11.1°
Maximum altitude 22:40:17 17° 21° (NNE) 2,150 8.8 -11.4°
Drops below altitude 10° 22:44:06 10° 59° (ENE) 2,641 8.8 -11.7°
Sets 22:47:46 0° 79° (E) 3,621 9.3 -12.1°
